This is the latest recevied weather packets stored in our database for station/object WW6Q. If no packets are shown the sender has not sent any weather packets the latest 10 day(s).
| Time | Temp. | Humidity | Pressure | Rain* | Wind** | Luminosity | Snow |
|---|---|---|---|---|---|---|---|
| 1788632544 | 25.56° C | 80% | 1014 hPa | 0 mm | - | 158 W/m² | - |
| 1788632240 | 26.11° C | 78% | 1013.9 hPa | 0 mm | - | 156 W/m² | - |
| 1788631938 | 26.11° C | 77% | 1014.2 hPa | 0 mm | - | 213 W/m² | - |
| 1788631634 | 25.56° C | 78% | 1014.3 hPa | 0 mm | - | 228 W/m² | - |
| 1788631329 | 26.11° C | 78% | 1014.1 hPa | 0 mm | - | 245 W/m² | - |
| 1788631029 | 26.11° C | 79% | 1013.9 hPa | 0 mm | - | 289 W/m² | - |
| 1788630723 | 25.56° C | 80% | 1013.9 hPa | 0 mm | - | 377 W/m² | - |
| 1788630419 | 25.56° C | 79% | 1014.2 hPa | 0 mm | - | 367 W/m² | - |
| 1788630114 | 26.11° C | 77% | 1014.2 hPa | 0 mm | - | 287 W/m² | - |
| 1788629810 | 25.56° C | 78% | 1014 hPa | 0 mm | - | 433 W/m² | - |
| 1788629506 | 25.56° C | 79% | 1014.1 hPa | 0 mm | - | 409 W/m² | - |
| 1788629205 | 25.56° C | 79% | 1014.2 hPa | 0 mm | - | 322 W/m² | - |
| 1788628899 | 26.11° C | 78% | 1014.3 hPa | 0 mm | - | 217 W/m² | - |
| 1788628596 | 26.11° C | 79% | 1014.2 hPa | 0 mm | - | 394 W/m² | - |
| 1788628291 | 25.56° C | 79% | 1014.3 hPa | 0 mm | - | 369 W/m² | - |
| 1788627988 | 26.11° C | 76% | 1014.4 hPa | 0 mm | - | 285 W/m² | - |
| 1788627683 | 26.11° C | 76% | 1014.4 hPa | 0 mm | - | 916 W/m² | - |
| 1788627377 | 25.56° C | 80% | 1014.3 hPa | 0 mm | - | 407 W/m² | - |
| 1788627073 | 26.11° C | 77% | 1014.4 hPa | 0 mm | - | 336 W/m² | - |
| 1788626768 | 25.56° C | 79% | 1014.3 hPa | 0 mm | - | 570 W/m² | - |
| 1788626467 | 26.11° C | 76% | 1014.2 hPa | 0 mm | - | 335 W/m² | - |
| 1788626163 | 25.56° C | 78% | 1014.5 hPa | 0 mm | - | 704 W/m² | - |
| 1788625860 | 25° C | 80% | 1014.4 hPa | 0 mm | - | 732 W/m² | - |
| 1788625556 | 25° C | 80% | 1014.4 hPa | 0 mm | - | 646 W/m² | - |
| 1788625254 | 25° C | 80% | 1014.4 hPa | 0 mm | - | 353 W/m² | - |
* Rain latest hour (hover to see other rain measurements)
** Current wind speed in m/s (hover to see current wind gust speed)